KC4KQE Weather Reports


Display with metric or nautical units.
time (UTC)temp
F
wind
direction
speed
MPH
gust
MPH
rain 1hr
in
rain 24hr
in
rain mn
in
humidity
%
barometer
mb
20260901094915 75 17 3.0 5.0 0.00 0.27 0.00 70 1015.4
20260901094414 75 355 0.0 5.0 0.00 0.28 0.00 71 1015.4
20260901093914 75 36 1.0 5.0 0.00 0.28 0.00 71 1015.3
20260901093415 75 22 3.0 4.0 0.00 0.28 0.00 72 1015.4
20260901092914 75 355 3.0 5.0 0.00 0.29 0.00 72 1015.3
20260901092415 75 26 2.0 4.0 0.00 0.29 0.00 72 1015.3
20260901091914 75 355 3.0 5.0 0.00 0.29 0.00 72 1015.2
20260901091415 75 19 1.0 4.0 0.00 0.29 0.00 72 1015.2
20260901090914 75 48 2.0 4.0 0.00 0.29 0.00 72 1015.2
20260901090414 75 35 2.0 5.0 0.00 0.29 0.00 73 1015.2
20260901085914 75 34 0.0 3.0 0.00 0.29 0.00 73 1015.2
20260901085415 76 65 2.0 5.0 0.00 0.29 0.00 73 1015.2
20260901084914 76 14 3.0 6.0 0.00 0.29 0.00 73 1015.2
20260901084414 75 348 3.0 6.0 0.00 0.30 0.00 73 1015.2
20260901083914 75 11 4.0 6.0 0.00 0.30 0.00 74 1015.2
20260901083414 75 333 2.0 6.0 0.00 0.30 0.00 74 1015.2
20260901082915 75 355 2.0 6.0 0.00 0.34 0.00 75 1015.2
20260901082414 75 338 3.0 4.0 0.00 0.47 0.00 76 1015.3
20260901081914 75 5 2.0 3.0 0.00 0.58 0.00 77 1015.2
20260901081414 74 42 1.0 3.0 0.00 0.69 0.00 78 1015.3
20260901080915 74 24 1.0 3.0 0.00 0.69 0.00 80 1015.3
20260901080414 74 42 2.0 2.0 0.00 0.69 0.00 80 1015.4
20260901075915 74 18 0.0 2.0 0.00 0.69 0.00 80 1015.4
20260901075414 74 18 0.0 0.0 0.00 0.69 0.00 80 1015.3
20260901074914 74 18 0.0 0.0 0.00 0.69 0.00 81 1015.4
20260901074414 74 18 0.0 0.0 0.00 0.69 0.00 81 1015.4
20260901073914 74 18 0.0 0.0 0.00 0.69 0.00 81 1015.4
20260901073414 74 35 0.0 0.0 0.00 0.69 0.00 81 1015.3
20260901072914 74 35 0.0 0.0 0.00 0.69 0.00 81 1015.3
20260901072414 74 35 0.0 0.0 0.00 0.69 0.00 80 1015.3
20260901071914 75 35 0.0 0.0 0.00 0.69 0.00 79 1015.3
20260901071415 75 35 0.0 0.0 0.00 0.69 0.00 77 1015.3
20260901070915 75 35 0.0 0.0 0.00 0.69 0.00 77 1015.3
20260901070414 75 35 0.0 0.0 0.00 0.69 0.00 77 1015.3
20260901065914 75 350 0.0 0.0 0.00 0.69 0.00 77 1015.3
20260901065415 75 350 0.0 2.0 0.00 0.69 0.00 75 1015.2
20260901064914 75 350 0.0 2.0 0.00 0.69 0.00 76 1015.1
20260901064414 75 350 0.0 0.0 0.00 0.69 0.00 75 1015.1
20260901063915 76 350 0.0 0.0 0.00 0.69 0.00 71 1015.1
20260901063414 76 350 0.0 1.0 0.00 0.69 0.00 71 1015.1
20260901062914 76 350 0.0 1.0 0.00 0.69 0.00 71 1015.0
20260901062414 76 350 0.0 2.0 0.00 0.69 0.00 70 1015.0
20260901061914 77 28 0.0 1.0 0.00 0.69 0.00 70 1015.0
20260901061414 77 28 0.0 1.0 0.00 0.69 0.00 69 1015.1
20260901060914 77 28 0.0 1.0 0.00 0.69 0.00 69 1015.2
20260901060414 77 12 0.0 3.0 0.00 0.69 0.00 69 1015.2
20260901055914 77 18 0.0 2.0 0.00 0.69 0.00 70 1015.2
20260901055414 77 52 0.0 2.0 0.00 0.69 0.00 71 1015.2
20260901054914 77 51 2.0 2.0 0.00 0.69 0.00 71 1015.2
20260901054414 76 52 0.0 2.0 0.00 0.69 0.00 71 1015.2
20260901053914 77 93 1.0 1.0 0.00 0.69 0.00 71 1015.2
20260901053414 77 179 0.0 0.0 0.00 0.69 0.00 70 1015.2
20260901052914 78 179 0.0 0.0 0.00 0.69 0.00 68 1015.2
20260901052414 78 179 0.0 2.0 0.00 0.69 0.00 67 1015.2
20260901051914 78 136 0.0 2.0 0.00 0.69 0.00 64 1015.2
20260901051414 79 106 0.0 2.0 0.00 0.69 0.00 64 1015.1
20260901050914 79 92 2.0 3.0 0.00 0.69 0.00 63 1015.2
20260901050415 79 102 2.0 7.0 0.00 0.69 0.00 63 1015.2
20260901045914 79 109 1.0 2.0 0.00 0.69 0.00 64 1015.3
20260901045414 79 109 0.0 4.0 0.00 0.69 0.00 63 1015.3
20260901044914 79 113 3.0 6.0 0.00 0.69 0.00 62 1015.3
20260901044414 79 132 3.0 7.0 0.00 0.69 0.00 62 1015.2
20260901043914 80 138 4.0 7.0 0.00 0.69 0.00 61 1015.0
20260901043414 80 121 1.0 7.0 0.00 0.69 0.00 60 1015.1
20260901042914 80 126 4.0 9.0 0.00 0.69 0.00 60 1015.1
20260901042414 80 107 2.0 5.0 0.00 0.69 0.00 59 1015.1
20260901041914 80 144 2.0 5.0 0.00 0.69 0.00 60 1015.1
20260901041414 80 120 2.0 5.0 0.00 0.69 0.00 60 1015.2
20260901040914 80 132 2.0 6.0 0.00 0.69 0.00 60 1015.1
20260901040414 80 127 2.0 7.0 0.00 0.69 0.00 59 1015.2
20260901035914 80 121 1.0 4.0 0.00 0.69 0.00 61 1015.1
20260901035415 80 88 2.0 6.0 0.00 0.69 0.00 61 1015.0
20260901034914 80 76 2.0 5.0 0.00 0.69 0.00 62 1014.9
20260901034414 80 113 3.0 7.0 0.00 0.69 0.00 62 1014.8
20260901033914 80 130 4.0 5.0 0.00 0.69 0.00 63 1014.8
20260901033415 80 111 0.0 4.0 0.00 0.69 0.00 63 1014.7
20260901032914 80 143 1.0 3.0 0.00 0.69 0.00 64 1014.8
20260901032414 80 164 0.0 3.0 0.00 0.69 0.00 65 1014.7
20260901031914 80 138 0.0 4.0 0.00 0.69 0.00 65 1014.5
20260901031414 80 157 1.0 5.0 0.00 0.69 0.00 65 1014.5
20260901030914 80 149 1.0 3.0 0.00 0.69 0.00 65 1014.3
20260901030415 80 145 2.0 3.0 0.00 0.69 0.00 65 1014.2
20260901025914 80 111 1.0 2.0 0.00 0.69 0.00 65 1014.2
20260901025414 80 11 0.0 2.0 0.00 0.69 0.00 64 1014.1
20260901024914 80 355 0.0 3.0 0.00 0.69 0.00 63 1014.0
20260901024414 80 11 2.0 4.0 0.00 0.69 0.00 62 1014.0
20260901023914 80 355 1.0 4.0 0.00 0.69 0.00 61 1014.0
20260901023414 81 17 3.0 4.0 0.00 0.69 0.00 62 1014.0
20260901022914 81 0 1.0 4.0 0.00 0.69 0.00 62 1013.9
20260901022414 81 346 2.0 3.0 0.00 0.69 0.00 61 1013.7
20260901021914 81 342 1.0 3.0 0.00 0.69 0.00 61 1013.6
20260901021414 81 0 2.0 4.0 0.00 0.69 0.00 58 1013.5
20260901020914 82 355 2.0 4.0 0.00 0.69 0.00 57 1013.4
20260901020414 82 355 3.0 5.0 0.00 0.69 0.00 57 1013.4
20260901015914 82 321 3.0 5.0 0.00 0.69 0.00 55 1013.5
20260901015415 82 5 1.0 4.0 0.00 0.69 0.00 54 1013.4
20260901014914 82 327 2.0 3.0 0.00 0.69 0.00 54 1013.4
20260901014413 83 16 0.0 1.0 0.00 0.69 0.00 55 1013.2
20260901013915 83 16 1.0 4.0 0.00 0.69 0.00 54 1013.2
20260901013414 83 20 1.0 3.0 0.00 0.69 0.00 54 1013.3
20260901012914 84 348 1.0 4.0 0.00 0.69 0.00 52 1013.5
20260901012414 84 307 3.0 5.0 0.00 0.69 0.00 51 1013.3
20260901011914 84 355 0.0 3.0 0.00 0.69 0.00 50 1013.3
20260901011415 85 348 0.0 3.0 0.00 0.69 0.00 52 1013.2
20260901010914 85 5 1.0 4.0 0.00 0.69 0.00 52 1013.3
20260901010414 85 24 1.0 2.0 0.00 0.69 0.00 51 1013.2
20260901005914 85 309 1.0 5.0 0.00 0.69 0.00 50 1013.3
20260901005414 85 342 4.0 8.0 0.00 0.69 0.00 50 1013.4
20260901004914 85 15 6.0 7.0 0.00 0.69 0.00 50 1013.5
20260901004414 85 27 3.0 9.0 0.00 0.69 0.00 49 1013.6
20260901003914 86 0 3.0 9.0 0.00 0.69 0.00 50 1013.6
20260901003414 86 0 8.0 8.0 0.00 0.69 0.00 50 1013.6
20260901002914 86 5 7.0 11.0 0.00 0.69 0.00 50 1013.7
20260901002414 86 329 6.0 11.0 0.00 0.69 0.00 49 1013.7
20260901001914 86 12 10.0 10.0 0.00 0.69 0.00 50 1013.9
20260901001415 86 342 5.0 9.0 0.00 0.69 0.00 49 1013.8
20260901000914 86 5 6.0 11.0 0.00 0.69 0.00 49 1013.7
20260901000414 86 15 4.0 10.0 0.00 0.69 0.00 49 1013.8
20260831235915 86 301 6.0 11.0 0.00 0.69 0.00 50 1013.7
20260831235414 87 305 6.0 11.0 0.00 0.69 0.00 49 1013.8
20260831234914 87 0 7.0 14.0 0.00 0.69 0.00 50 1013.7
20260831234414 88 342 6.0 10.0 0.00 0.69 0.00 51 1013.6
20260831233914 87 252 8.0 11.0 0.00 0.69 0.00 49 1013.7
20260831233414 86 286 4.0 6.0 0.00 0.69 0.00 47 1013.6
20260831232914 86 270 5.0 5.0 0.00 0.69 0.00 45 1013.6
20260831232414 86 254 2.0 6.0 0.00 0.69 0.00 47 1013.7
20260831231914 86 273 3.0 5.0 0.00 0.69 0.00 44 1013.9
20260831231414 86 209 2.0 3.0 0.00 0.69 0.00 43 1014.0
20260831230914 85 48 1.0 5.0 0.00 0.69 0.00 43 1014.1
20260831230414 85 252 5.0 5.0 0.00 0.69 0.00 45 1014.2
20260831225914 85 235 0.0 5.0 0.00 0.69 0.00 43 1014.2
20260831225415 85 281 4.0 4.0 0.00 0.69 0.00 44 1014.3
20260831224914 85 120 3.0 5.0 0.00 0.69 0.00 43 1014.3
20260831224414 85 192 3.0 4.0 0.00 0.69 0.00 44 1014.3
20260831223914 85 210 3.0 7.0 0.00 0.69 0.00 44 1014.4
20260831223414 85 276 3.0 6.0 0.00 0.69 0.00 44 1014.6
20260831222914 85 211 6.0 6.0 0.00 0.69 0.00 45 1014.6
20260831222415 85 238 1.0 6.0 0.00 0.69 0.00 45 1014.7
20260831221915 85 168 0.0 5.0 0.00 0.69 0.00 44 1015.0
20260831221414 85 144 0.0 5.0 0.00 0.69 0.00 44 1015.1
20260831220914 85 188 0.0 7.0 0.00 0.69 0.00 46 1015.3
20260831220414 84 192 5.0 6.0 0.00 0.69 0.00 50 1015.4
20260831215914 84 178 0.0 5.0 0.00 0.69 0.00 49 1015.5
20260831215414 84 215 3.0 7.0 0.00 0.69 0.00 51 1015.8
20260831214914 84 130 3.0 7.0 0.00 0.69 0.00 51 1015.9
20260831214414 84 243 3.0 9.0 0.00 0.69 0.00 52 1016.0
20260831213914 84 209 3.0 8.0 0.00 0.69 0.00 53 1016.1
20260831213414 84 173 7.0 12.0 0.00 0.69 0.00 51 1016.2
20260831212914 83 169 2.0 9.0 0.00 0.69 0.00 53 1016.3
20260831212414 84 123 4.0 7.0 0.00 0.69 0.00 51 1016.4
20260831211914 84 186 7.0 10.0 0.00 0.69 0.00 51 1016.5
20260831211414 83 240 1.0 10.0 0.00 0.69 0.00 52 1016.4
20260831210914 84 153 4.0 8.0 0.00 0.69 0.00 50 1016.5
20260831210413 84 109 4.0 10.0 0.00 0.69 0.00 49 1016.4
20260831205915 83 149 1.0 7.0 0.00 0.69 0.00 51 1016.5
20260831205414 83 107 4.0 5.0 0.00 0.69 0.00 59 1016.6
20260831204914 82 77 5.0 0.0 0.00 0.69 0.00 59 1016.7
20260831204413 81 77 5.0 9.0 0.00 0.69 0.00 59 1016.7
20260831203915 81 106 3.0 7.0 0.00 0.69 0.00 60 1016.8
20260831203413 80 126 2.0 6.0 0.00 0.69 0.00 67 1016.9
20260831202914 80 91 2.0 7.0 0.00 0.69 0.00 68 1017.0
20260831202413 79 101 6.0 10.0 0.00 0.69 0.00 70 1017.0
20260831201914 78 135 5.0 10.0 0.00 0.69 0.00 72 1017.0
20260831201414 77 135 1.0 9.0 0.00 0.69 0.00 78 1017.0
20260831200914 76 99 1.0 5.0 0.00 0.69 0.00 81 1017.1
20260831200414 76 184 2.0 5.0 0.00 0.69 0.00 84 1017.2
20260831195913 75 175 2.0 5.0 0.00 0.69 0.00 84 1017.2
20260831195415 75 116 0.0 4.0 0.00 0.69 0.00 84 1017.0
20260831194915 75 192 2.0 5.0 0.00 0.69 0.00 85 1017.0
20260831194414 74 126 3.0 8.0 0.00 0.69 0.00 85 1017.2
20260831193914 74 153 4.0 7.0 0.00 0.69 0.00 85 1017.2
20260831193413 75 146 2.0 7.0 0.00 0.69 0.00 85 1017.0
20260831192915 75 144 4.0 8.0 0.00 0.69 0.00 85 1017.1
20260831192414 75 189 4.0 10.0 0.00 0.69 0.00 85 1017.2
20260831191914 75 161 6.0 8.0 0.00 0.69 0.00 84 1017.3
20260831191414 75 169 4.0 8.0 0.00 0.69 0.00 84 1017.4
20260831190914 75 138 2.0 8.0 0.00 0.69 0.00 83 1017.4
20260831190415 75 133 5.0 10.0 0.00 0.69 0.00 82 1017.3
20260831185914 75 85 11.0 13.0 0.00 0.69 0.00 82 1017.3
20260831185414 75 118 4.0 8.0 0.00 0.69 0.00 82 1017.3
20260831184914 75 158 3.0 9.0 0.00 0.69 0.00 83 1017.3
20260831184414 75 186 4.0 10.0 0.00 0.69 0.00 83 1017.4
20260831183913 75 108 3.0 9.0 0.00 0.69 0.00 83 1017.4
20260831183414 75 138 4.0 11.0 0.00 0.69 0.00 83 1017.4
20260831182914 75 182 2.0 9.0 0.00 0.69 0.00 83 1017.4
20260831182414 75 162 3.0 10.0 0.00 0.69 0.00 83 1017.5
20260831181914 75 124 4.0 12.0 0.00 0.69 0.00 83 1017.7
20260831181413 75 150 5.0 11.0 0.00 0.69 0.00 84 1017.7
20260831180915 75 158 5.0 6.0 0.00 0.69 0.00 87 1017.8
20260831180413 75 113 1.0 5.0 0.01 0.69 0.00 88 1017.8
20260831175914 75 118 3.0 6.0 0.01 0.69 0.00 88 1017.8
20260831172917 74 172 1.0 7.0 0.05 0.69 0.00 88 1018.2
20260831172417 74 184 3.0 6.0 0.06 0.69 0.00 89 1018.1
20260831171916 74 214 2.0 5.0 0.07 0.69 0.00 89 1018.0
20260831171416 73 178 5.0 7.0 0.08 0.69 0.00 88 1017.9
20260831170917 73 190 2.0 7.0 0.09 0.69 0.00 89 1017.7
20260831170416 73 188 5.0 6.0 0.08 0.68 0.00 89 1017.5
20260831165918 73 202 1.0 4.0 0.09 0.68 0.00 89 1017.3
20260831165417 72 121 2.0 2.0 0.10 0.67 0.00 89 1017.2
20260831164917 72 55 1.0 4.0 0.11 0.67 0.00 88 1017.2
20260831164417 72 57 7.0 7.0 0.14 0.66 0.00 88 1017.3
20260831163917 72 40 3.0 7.0 0.15 0.65 0.00 88 1017.5
20260831163417 72 36 2.0 7.0 0.17 0.64 0.00 88 1017.6
20260831162917 72 36 4.0 10.0 0.17 0.63 0.00 88 1017.6
20260831162416 72 17 6.0 10.0 0.16 0.62 0.00 89 1017.7
20260831161917 72 0 7.0 11.0 0.15 0.61 0.00 89 1017.7
20260831161417 72 42 6.0 12.0 0.14 0.60 0.00 89 1017.7
20260831160917 72 37 8.0 13.0 0.13 0.59 0.00 89 1017.8
20260831160417 72 42 10.0 12.0 0.13 0.59 0.00 88 1017.7
20260831155916 72 348 5.0 11.0 0.11 0.58 0.00 87 1017.7
20260831155416 72 0 4.0 10.0 0.09 0.56 0.00 87 1017.7
20260831154917 73 348 6.0 12.0 0.09 0.55 0.00 86 1017.7
20260831154417 73 350 7.0 11.0 0.06 0.52 0.00 84 1017.7
20260831153917 74 46 3.0 10.0 0.04 0.50 0.00 82 1017.6
20260831153416 75 67 5.0 10.0 0.01 0.47 0.00 80 1017.7
20260831152918 76 5 5.0 8.0 0.00 0.46 0.00 77 1017.6
20260831152417 76 83 8.0 13.0 0.00 0.46 0.00 78 1017.6
20260831151917 76 152 0.0 4.0 0.00 0.46 0.00 76 1017.6
20260831151416 76 163 2.0 5.0 0.00 0.46 0.00 76 1017.6
20260831150917 76 171 3.0 8.0 0.00 0.46 0.00 75 1017.4
20260831150416 77 136 6.0 10.0 0.00 0.46 0.00 74 1017.1
20260831145916 76 147 6.0 16.0 0.00 0.46 0.00 74 1016.9
20260831145418 76 146 10.0 16.0 0.01 0.46 0.00 75 1016.6
20260831144917 76 95 6.0 13.0 0.01 0.46 0.00 75 1016.5
20260831144416 76 144 6.0 15.0 0.01 0.46 0.00 76 1016.5
20260831143916 76 179 10.0 16.0 0.01 0.46 0.00 76 1016.4
20260831143417 76 158 8.0 18.0 0.02 0.46 0.00 76 1016.3
20260831142917 76 133 5.0 17.0 0.02 0.46 0.00 77 1016.2
20260831142417 75 155 5.0 16.0 0.02 0.46 0.00 77 1016.1
20260831141917 75 121 8.0 16.0 0.02 0.46 0.00 77 1016.0
20260831141416 75 159 10.0 17.0 0.02 0.46 0.00 78 1015.8
20260831140916 75 102 11.0 20.0 0.02 0.46 0.00 80 1015.8
20260831140416 74 126 14.0 16.0 0.02 0.46 0.00 80 1015.9
20260831135916 74 107 11.0 18.0 0.02 0.46 0.00 81 1015.9
20260831135417 74 140 6.0 16.0 0.01 0.45 0.00 81 1015.8
20260831134916 74 109 8.0 17.0 0.02 0.45 0.00 81 1015.8
20260831134417 74 112 9.0 21.0 0.02 0.45 0.00 81 1015.8
20260831133918 74 129 12.0 18.0 0.02 0.45 0.00 82 1015.9
20260831133416 75 86 7.0 14.0 0.01 0.44 0.00 82 1015.9
20260831132916 75 191 8.0 15.0 0.01 0.44 0.00 81 1016.0
20260831132417 75 101 7.0 16.0 0.01 0.44 0.00 80 1015.8
20260831131917 76 126 5.0 19.0 0.01 0.44 0.00 80 1015.7
20260831131417 76 112 13.0 23.0 0.01 0.44 0.00 79 1015.5
20260831130916 76 111 11.0 20.0 0.01 0.44 0.00 79 1015.6
20260831130416 76 106 10.0 16.0 0.01 0.44 0.00 79 1015.6
20260831125917 77 129 11.0 22.0 0.01 0.44 0.00 78 1015.6
20260831125416 77 183 6.0 14.0 0.01 0.44 0.00 77 1015.6
20260831124916 77 142 6.0 14.0 0.00 0.43 0.00 75 1015.5
20260831124417 77 134 7.0 12.0 0.00 0.43 0.00 77 1015.4
20260831123916 77 148 5.0 10.0 0.00 0.43 0.00 78 1015.3
20260831123416 76 122 4.0 5.0 0.00 0.43 0.00 79 1015.3
20260831122916 76 136 2.0 7.0 0.00 0.43 0.00 79 1015.1
20260831122417 76 197 2.0 4.0 0.00 0.43 0.00 77 1014.8
20260831121918 76 191 3.0 5.0 0.00 0.43 0.00 76 1014.6
20260831121417 76 340 2.0 5.0 0.00 0.43 0.00 77 1014.1
20260831120917 76 326 1.0 5.0 0.00 0.43 0.00 79 1013.9
20260831120417 75 340 3.0 7.0 0.00 0.43 0.00 79 1013.8
20260831115916 75 333 5.0 7.0 0.00 0.43 0.00 80 1013.7
20260831115416 75 0 6.0 6.0 0.00 0.43 0.00 82 1013.5
20260831114916 75 13 2.0 5.0 0.00 0.43 0.00 83 1013.4
20260831114416 75 324 2.0 6.0 0.00 0.43 0.00 83 1013.3
20260831113916 75 348 4.0 5.0 0.00 0.43 0.00 83 1013.2
20260831113417 75 330 3.0 6.0 0.00 0.43 0.00 84 1013.1
20260831112916 75 349 2.0 5.0 0.00 0.43 0.00 84 1013.0
20260831112416 75 13 2.0 5.0 0.00 0.43 0.00 84 1013.0
20260831111917 75 11 2.0 6.0 0.00 0.43 0.00 84 1013.0
20260831111417 75 16 1.0 3.0 0.00 0.43 0.00 86 1013.1
20260831110917 75 41 1.0 2.0 0.00 0.43 0.00 86 1013.2
20260831110416 75 320 0.0 1.0 0.00 0.43 0.00 87 1013.2
20260831105917 75 320 1.0 2.0 0.00 0.43 0.00 87 1013.2
20260831105417 75 320 0.0 1.0 0.01 0.43 0.00 89 1013.1
20260831104918 75 320 0.0 1.0 0.01 0.43 0.00 88 1013.0
20260831104416 75 320 0.0 2.0 0.02 0.43 0.00 87 1012.9
20260831103916 75 320 1.0 3.0 0.02 0.43 0.00 88 1012.8
20260831103416 75 333 3.0 3.0 0.02 0.43 0.00 88 1012.8
20260831102917 75 94 0.0 1.0 0.03 0.43 0.00 88 1012.8
20260831102416 75 94 0.0 2.0 0.03 0.43 0.00 87 1012.6
20260831101916 75 103 2.0 4.0 0.03 0.43 0.00 88 1012.7
20260831101416 75 86 0.0 0.0 0.03 0.43 0.00 87 1012.7
20260831100917 75 86 0.0 0.0 0.04 0.43 0.00 87 1012.7
20260831100416 75 86 0.0 1.0 0.04 0.43 0.00 86 1012.8
20260831095916 75 86 1.0 2.0 0.04 0.43 0.00 83 1012.7
20260831095416 75 82 2.0 5.0 0.03 0.42 0.00 84 1012.7